Tracking 18710 objects as of 29-June-2017
HD Live streaming from Space Station
objects crossing your sky now

VANGUARD R/B

Track VANGUARD R/B now!
10-day predictions


NORAD ID: 12
Int'l Code: 1959-001B
Perigee: 561.0 km
Apogee: 3,335.4 km
Inclination: 32.9 °
Period: 125.9 minutes
Semi major axis: 8319 km
RCS: 0.5381 m2 (medium)
Launch date: February 17, 1959
Source: United States (US)
Launch site: AIR FORCE EASTERN TEST RANGE (AFETR)

Note: This is a ROCKET BODY
Your satellite tracking list
Your tracking list is empty





NASA's NSSDC Master Catalog

Two Line Element Set (TLE):
1    12U 59001B   17179.38438299 -.00000059 +00000-0 -36388-4 0  9997
2    12 032.8956 186.8862 1667492 131.8713 243.6693 11.44150696155669
Source of the keplerian elements: AFSPC